Theta_e
332 333 334 335 336 340 345 346 348 347 347 353 356 349 348 356 349 351 351 350 349 348 347 347 348 350 348 348 351 350 352 354 354 348 344 351 352 355 353 352 353 353 346 344
330 334 334 336 337 341 345 346 347 347 346 348 352 348 344 353 348 351 350 350 349 349 349 348 347 350 351 353 352 349 353 354 353 352 353 351 354 354 355 354 355 352 354 356
328 333 335 336 336 338 343 346 346 348 344 341 351 353 347 344 344 349 350 349 348 349 350 349 350 349 350 340 346 354 355 355 355 356 355 355 354 351 352 354 354 353 355 356
328 330 334 335 336 335 336 338 339 343 343 345 339 355 351 349 352 355 352 350 348 349 350 349 350 349 347 346 345 344 342 354 357 355 355 349 343 351 351 352 346 344 348 354
327 329 331 334 335 335 335 337 338 341 339 338 337 349 352 348 343 351 344 350 350 349 350 352 351 349 348 342 339 339 348 353 357 355 353 353 352 351 351 348 344 340 351 351
324 328 330 331 333 333 335 338 336 335 336 337 341 346 349 353 352 350 342 343 344 346 350 350 350 345 342 341 344 346 348 356 358 357 350 352 350 347 348 346 345 352 349 348
322 324 324 326 325 329 332 334 335 337 339 337 340 346 349 351 351 347 345 348 348 340 348 350 349 349 347 347 350 352 358 359 357 353 349 343 341 353 350 351 350 349 348 343
320 321 323 326 324 329 329 331 332 339 340 339 347 350 351 349 346 345 346 344 348 342 349 348 347 347 355 359 361 361 359 358 356 352 352 352 350 351 350 349 347 339 336 335
319 322 325 326 325 328 328 327 328 328 328 331 341 349 344 347 348 345 345 346 346 351 352 349 348 349 356 360 360 358 357 356 352 352 351 349 349 347 347 340 339 338 335 333
320 319 322 324 325 325 326 327 325 325 333 335 332 348 349 351 349 344 342 349 347 355 353 351 352 358 359 360 358 356 353 353 353 351 349 348 346 344 341 337 334 333 332 331
320 319 320 322 324 323 325 325 324 322 323 329 331 338 348 346 344 343 340 356 357 357 356 357 357 356 357 356 355 353 353 353 349 348 346 344 340 337 334 332 332 331 331 331
320 318 319 321 323 324 325 325 323 323 324 325 326 337 348 343 342 341 347 357 358 359 358 357 356 356 355 354 353 352 349 348 347 344 341 338 336 333 332 331 331 330 329 328
323 321 319 321 321 322 325 325 325 323 321 324 326 345 348 344 344 345 345 356 359 358 357 355 355 354 353 352 351 349 348 346 343 341 338 335 333 331 331 329 328 328 327 326
324 320 321 321 323 324 328 327 325 322 322 323 326 350 350 343 342 340 344 356 359 357 357 355 355 354 352 350 349 348 347 343 342 338 333 332 332 330 329 327 326 325 324 320
323 322 323 321 322 323 322 324 326 324 323 325 326 349 347 342 341 341 346 349 358 358 357 356 356 351 349 348 346 346 343 341 336 333 332 330 329 328 326 325 324 321 321 319
323 323 327 325 324 323 324 324 323 325 326 325 326 326 345 341 343 351 354 350 359 360 357 356 353 349 347 346 346 344 339 335 335 332 331 329 328 326 325 322 320 320 320 320
334 325 327 324 325 325 325 325 324 324 326 327 326 324 329 345 348 347 344 344 359 359 355 354 351 349 347 348 345 339 337 335 334 332 330 328 327 325 323 321 320 320 319 319
335 335 335 327 328 328 325 325 327 327 326 325 324 326 329 350 347 344 340 356 358 357 355 353 350 349 347 346 341 337 335 334 332 330 328 327 326 322 321 321 320 320 319 319
333 333 334 338 338 333 331 327 329 328 328 328 324 326 353 358 359 349 360 358 356 354 353 352 349 347 346 343 339 336 334 333 331 329 328 327 323 321 321 320 321 320 320 320
331 326 331 333 339 339 337 336 333 330 329 345 332 327 350 354 363 357 349 352 355 353 351 350 348 346 344 340 337 334 332 331 330 328 326 326 323 321 321 322 321 321 322 322
334 335 332 333 338 336 337 341 340 348 346 346 345 343 332 346 351 350 335 341 354 353 351 349 348 345 339 336 334 332 331 330 328 326 326 326 323 321 322 321 322 321 321 322
337 338 336 339 336 335 338 343 353 347 344 346 343 353 350 354 348 345 350 353 352 351 350 349 343 339 336 335 333 332 330 329 325 324 324 325 323 322 322 322 321 322 322 322
343 344 343 343 343 339 338 336 337 341 342 344 341 352 342 346 342 354 356 345 351 351 348 342 339 337 336 334 332 331 330 326 324 323 324 323 321 323 321 322 322 321 322 322
341 339 340 342 339 339 339 337 336 334 337 339 341 345 336 334 335 341 343 344 348 347 342 340 338 337 336 334 331 330 327 325 324 323 322 322 322 324 321 321 322 323 322 322
341 341 342 339 337 337 340 337 334 334 335 341 341 346 342 339 339 339 343 351 347 344 341 339 338 337 335 333 330 327 326 325 325 324 323 324 323 321 320 319 319 321 318 314
336 340 342 343 335 336 339 337 334 336 335 335 339 340 341 345 348 352 351 348 345 342 340 338 337 334 332 330 328 326 326 325 326 325 325 322 322 322 320 321 320 321 317 316
Wind_Speed
9 6 9 14 15 8 5 5 8 17 16 5 22 24 28 23 6 14 13 11 11 10 14 15 22 29 29 24 21 25 26 26 23 21 15 13 14 16 14 13 13 9 9 9
6 13 13 17 19 6 18 14 10 6 12 14 18 23 23 18 7 7 13 15 14 13 16 13 18 28 22 11 20 27 25 28 26 20 13 11 12 12 12 9 11 8 7 8
10 14 15 19 19 14 12 16 15 15 9 3 15 4 5 11 11 7 11 16 14 14 18 13 21 31 38 24 22 22 17 23 24 19 12 12 3 6 8 8 5 6 7 9
11 13 19 17 15 8 6 10 4 7 5 3 4 3 7 4 4 13 7 9 14 18 20 16 19 24 34 27 21 17 20 18 20 15 10 13 12 14 9 10 10 7 5 6
11 17 15 15 17 11 11 9 7 3 4 1 5 6 6 7 6 7 5 4 7 20 20 18 18 26 29 24 21 17 24 17 16 13 15 11 17 11 11 9 7 6 1 2
13 10 14 13 17 14 9 4 8 6 2 2 6 6 4 4 8 4 5 3 4 11 19 17 25 30 30 27 21 13 18 16 16 15 13 9 7 8 6 8 3 3 2 6
12 15 11 9 10 14 7 3 3 5 4 6 7 7 7 12 13 6 10 11 1 4 11 17 19 19 22 25 22 16 16 17 15 13 11 3 6 3 5 3 8 12 11 8
10 11 10 14 9 8 9 8 5 7 4 4 3 6 5 14 7 1 11 17 13 18 16 16 15 17 17 25 24 26 23 18 13 11 9 6 8 9 10 12 11 17 16 12
7 10 15 14 15 5 9 6 8 6 8 1 5 4 8 3 5 8 8 30 23 12 17 18 15 18 20 26 27 25 21 16 12 12 7 8 8 11 10 12 11 9 8 10
13 8 17 13 14 9 10 7 5 4 5 6 6 9 7 10 8 5 5 8 17 20 18 17 15 20 24 27 27 22 18 14 13 14 13 13 12 10 9 8 10 9 10 10
12 11 22 11 5 14 3 4 5 2 4 4 2 4 10 15 11 13 16 17 25 21 22 17 15 26 27 29 31 25 19 19 19 19 18 16 14 13 13 11 12 12 11 9
12 9 10 16 16 8 10 10 10 5 10 4 5 5 13 17 17 15 12 17 19 20 18 17 17 25 25 25 25 28 22 21 23 23 21 19 16 14 14 14 13 11 12 13
4 6 6 10 10 8 7 7 6 4 2 6 3 4 10 12 9 9 9 6 17 18 17 16 16 17 23 24 26 26 24 23 23 20 18 16 16 17 16 14 13 13 13 14
6 3 2 6 9 6 6 7 8 9 4 5 7 10 12 10 13 8 7 8 16 18 19 15 15 14 22 23 25 27 24 23 22 23 22 20 18 18 16 16 14 14 14 12
3 3 6 9 10 15 11 9 10 10 10 6 6 16 19 23 16 8 5 5 14 17 18 16 18 14 22 22 24 26 26 23 28 25 21 19 17 17 16 16 14 14 14 12
3 5 4 8 12 13 14 12 10 7 11 8 7 7 21 23 10 9 12 8 12 18 20 18 18 17 21 22 23 25 27 27 23 23 21 18 15 16 16 15 14 14 13 11
7 3 3 7 9 10 8 8 8 9 6 6 7 10 4 14 23 21 22 18 19 18 17 17 17 17 22 24 23 26 28 25 25 25 21 19 19 17 15 15 14 13 12 10
13 4 2 6 5 7 9 10 8 9 10 9 7 6 2 24 28 22 16 18 16 16 13 17 16 22 24 25 26 29 27 26 26 24 21 19 18 16 15 13 12 11 10 8
9 7 4 2 3 6 7 10 7 7 11 8 11 8 15 19 17 2 18 17 21 25 21 24 28 27 27 27 29 28 26 25 25 24 22 20 19 17 15 13 11 9 7 6
15 11 4 4 3 6 7 11 10 13 8 16 9 9 21 15 10 12 15 19 19 20 30 28 32 31 27 31 34 29 26 25 24 24 22 20 19 17 15 12 10 6 4 4
4 4 6 6 5 8 11 12 8 7 5 10 15 8 5 11 10 27 19 13 18 26 32 34 30 26 31 33 35 29 26 23 23 22 20 19 18 16 14 10 8 5 4 4
5 4 2 5 5 8 14 6 6 6 7 6 11 8 9 6 19 23 13 5 5 20 25 32 30 30 31 35 33 29 26 23 24 22 20 18 17 15 12 10 8 7 7 9
2 4 4 5 4 4 12 3 8 13 8 7 6 7 6 17 21 20 21 26 17 15 16 29 31 29 28 29 32 27 27 28 25 22 19 18 18 14 12 11 10 10 10 12
5 4 2 10 6 17 6 10 13 16 16 20 14 9 6 14 13 18 19 18 20 21 27 25 29 27 25 31 31 31 32 29 25 23 20 17 15 11 16 12 12 12 12 13
1 1 3 7 6 15 10 13 12 19 24 23 26 8 6 9 14 17 13 15 16 20 30 31 26 25 24 30 30 34 31 28 25 23 20 17 15 13 13 12 13 13 9 1
5 6 5 5 4 5 10 5 9 16 20 25 17 7 12 9 8 5 16 17 22 24 32 28 27 27 26 31 31 30 29 27 25 23 20 19 18 18 16 16 16 16 12 11
Wind_Direction
234 221 241 250 256 147 170 229 189 207 228 72 132 141 212 231 184 190 191 169 174 180 145 185 141 160 166 177 190 163 172 181 181 182 186 207 217 209 209 233 253 253 244 244
267 241 238 259 267 209 152 209 227 303 249 128 155 178 194 221 256 220 184 173 184 178 144 170 135 111 81 72 177 177 175 176 191 203 201 199 213 225 236 228 250 269 259 257
239 244 243 245 261 272 195 209 213 210 232 301 122 84 172 251 253 322 245 180 188 169 148 158 133 133 148 181 215 172 174 189 194 205 192 168 151 231 214 226 215 285 267 256
246 255 253 261 260 275 285 227 238 208 105 194 151 100 180 224 199 185 279 189 193 160 153 157 144 150 168 201 225 201 214 201 212 212 191 155 165 241 174 177 162 161 241 229
239 247 262 260 259 254 246 260 295 238 251 322 294 97 274 255 232 338 299 251 325 165 159 146 155 164 176 187 193 211 188 202 210 206 203 189 180 158 137 162 185 214 255 131
250 253 243 250 269 277 284 319 320 322 166 25 165 116 278 233 222 244 246 218 359 326 158 140 154 157 172 190 191 185 189 198 202 185 173 190 150 161 182 164 211 286 216 84
276 269 274 258 283 281 289 293 327 329 342 229 141 90 215 221 253 227 328 308 7 329 193 147 150 167 183 192 183 179 179 164 166 158 158 149 148 148 105 90 83 95 120 72
229 269 259 263 241 221 236 195 161 230 248 244 3 149 242 222 305 183 105 256 274 278 192 144 150 162 147 142 152 150 150 140 141 136 136 131 112 115 96 84 98 91 84 69
235 243 247 234 247 199 275 302 233 240 266 325 161 25 341 220 246 200 192 210 219 212 158 146 150 159 142 125 137 146 143 146 152 156 152 131 123 126 118 102 100 99 83 61
251 280 272 268 225 237 174 215 297 326 214 255 272 172 200 184 215 234 246 264 185 172 152 153 153 133 123 131 140 142 146 164 163 164 154 144 132 123 118 110 87 80 78 79
220 230 267 284 261 207 233 199 253 230 168 184 283 279 178 177 176 205 233 154 158 162 151 154 136 134 128 133 138 139 145 158 153 153 144 134 124 120 108 102 94 88 87 79
214 209 241 257 265 245 185 184 190 142 282 232 173 299 159 180 198 192 214 142 156 149 151 136 136 131 132 130 137 139 154 154 145 141 137 134 137 130 110 113 107 95 89 78
347 252 239 326 317 327 221 200 193 227 212 255 208 220 178 180 200 222 183 128 135 138 136 138 134 136 137 136 145 149 161 151 144 145 144 142 134 125 121 109 104 104 103 97
54 309 172 203 243 256 305 194 207 187 213 247 238 141 184 187 205 208 113 98 130 140 142 141 138 139 137 143 151 156 157 149 158 150 133 121 119 122 120 114 115 110 102 98
106 274 312 292 292 294 273 259 229 208 221 204 250 158 186 200 188 176 106 88 137 141 142 145 140 138 146 149 155 159 156 149 142 135 130 123 123 124 124 119 113 107 105 98
266 273 294 293 293 297 301 293 295 265 211 228 238 220 192 205 135 150 148 180 187 154 151 146 143 142 151 158 157 158 143 142 143 135 130 132 131 128 125 121 116 111 110 110
294 206 226 257 281 305 315 277 289 294 283 197 225 238 191 154 159 179 184 186 184 153 148 140 144 143 152 155 157 139 145 144 141 138 140 140 140 136 133 133 128 124 120 112
299 337 201 228 255 277 260 290 289 291 287 287 299 280 271 172 178 176 176 183 151 140 155 151 154 149 155 152 146 144 148 144 143 143 145 148 147 143 143 140 138 138 135 134
289 289 301 175 239 254 284 281 275 260 278 263 246 257 104 111 123 72 161 159 156 167 157 152 157 156 159 149 147 147 149 150 150 151 153 154 153 152 153 153 156 159 166 177
241 239 195 294 260 265 252 339 316 280 263 347 288 214 137 147 154 183 185 167 169 155 149 146 154 160 158 145 150 147 151 155 156 158 158 159 159 160 162 158 161 177 186 219
270 280 239 261 236 261 19 331 22 72 270 340 3 330 167 181 195 182 178 180 167 146 148 147 158 153 143 144 148 147 157 163 160 157 157 159 161 162 164 166 179 188 234 256
241 129 299 309 219 269 352 9 60 277 305 347 14 357 59 64 90 107 99 94 35 136 143 148 139 140 143 145 149 148 155 158 159 157 158 158 161 164 171 184 200 215 243 263
65 46 317 29 293 54 22 3 343 347 340 352 3 41 92 103 91 105 111 107 96 255 139 133 135 137 141 145 150 146 150 158 160 159 160 162 173 174 181 193 219 229 251 266
12 2 354 343 330 356 5 336 5 353 340 335 329 126 99 92 103 129 151 152 169 159 134 138 136 136 140 148 156 156 155 161 161 161 165 171 181 200 187 208 231 254 271 262
24 99 111 259 288 348 37 353 351 349 345 338 340 96 175 140 154 148 157 140 137 139 135 140 140 140 141 147 151 156 156 163 165 167 172 179 186 188 200 225 235 249 224 108
183 179 181 244 243 204 268 294 334 11 340 322 315 303 195 154 129 121 126 140 141 135 140 140 142 140 137 143 152 157 160 166 169 169 178 187 198 204 206 226 241 237 229 230